OBJECT C, 64868

Orbit data source: Space-Track

You're viewing an Uncataloged Satellite

Recently launched and/or uncataloged satellites may have evolving metadata. Metadata may include but not limited to: Owner, Maufacturer, Bus, Motor, and Mission.

OBJECT C, 64868 is a satellite in LEO that was launched on Tue, 22 Jul 2025 UTC launched from the Air Force Eastern Test Range (AFETR). Unknown objects in Earth's orbit typically refer to objects detected orbiting the Earth but have not yet been identified or cataloged. These objects could be anything from previously untracked satellites, spent rocket stages, debris from satellite collisions, or even natural meteoroids temporarily captured by Earth's gravity.

Loading next visibility...
Identifier
64868, 2025-153C
Orbit
LEO
Country
Flag of TBDTBD
Related business
None
Manufacturer
SpaceX
Mission
Spacecraft
Bus & Motor
F9ST2, Unknown motor
Mass
~3,000 kg wet, ~3,000 kg dry
Launch date (UTC)
2025-07-22 (1 month ago)
Launch vehicle
Unknown
Launch site
Air Force Eastern Test Range (AFETR)
Object type
Unknown
Shape & HBR
Unknown
Radar Cross Section
Large (>1 m²)

Expand to show TLE details & history
Last TLE update: 2 days ago

TLE from 2 days ago
0 OBJECT C
1 64868U 25153C   25241.19071822  .00000062  00000-0  57232-2 0  9991
2 64868   9.7298  35.8493 1939815 288.6335  51.3672  7.32307478  2739
Epoch: 2025-08-29T04:34Z
TLE epoch observation values (Epoch: 2025-08-29T04:34:38.054Z)
Latitude
0.00001°
Longitude
-10.45211°
Altitude
3,771.325 km
Speed
6.555 km/s
True Right ascension
02h 23m 23s
True Declination
0° 00' 00"
Sunlit
Object was in daylight at epoch
Visualization orbit readout
Latitude
Unknown
Longitude
Unknown
Altitude
Unknown
Speed
Unknown
Apparent Right ascension
Unknown
Apparent Declination
Unknown
Sunlit
N/A
Visualization observer readout
Local Sidereal Time
18:38:15
Azimuth
Unknown
Elevation
Unknown
Doppler factor
Unknown
Orbital elements
Apogee altitude
7,000.913 km
Perigee altitude
2,653.63 km
Semi-major axis
11,205.408 km
Eccentricity
0.19398
Inclination
9.7298°
RAAN
35.8493°
Arg. of periapsis
288.6335°
True anomaly
71.38066°
Mean anomaly
51.3672°
Eccentric anomaly
61.09712°
Mean motion
1.82979 °/min
Orbital period
196.74 mins
BSTAR
0.0057232
Loading maneuver chart data...
Computing Atmospheric mass density...
Loading historical data...
Loading historical data...
Loading historical data...
Loading historical data...
Loading historical data...
Loading historical data...
Loading historical data...
Other satellites on launch #153 in the year 2025 (2025-07-22 UTC)

Documentation

Showing up to 5 results
|